Location: Unspecified
(0.0000°N, 0.0000°E)
Time: 13:10:10
(UTC+00:00)

Tiros 1 despin weight - All Passes

Search period start: 01 August 2021 00:00
Search period end: 11 August 2021 00:00
Orbit: 593 x 642 km, 48.2° (Epoch: 31 July)

Date Brightness Start Highest point End Pass type
(mag) Time Alt. Az. Time Alt. Az. Time Alt. Az.
01 Aug - 09:04:27 10° S 09:07:39 19° SE 09:10:52 10° E daylight
01 Aug - 10:44:57 10° WSW 10:49:00 32° NW 10:53:07 10° NNE daylight
01 Aug - 21:11:57 10° N 21:15:55 30° NE 21:19:52 10° ESE visible
01 Aug - 22:54:02 10° W 22:57:17 19° SW 23:00:30 10° S night (unlit)
02 Aug - 09:19:29 10° SSW 09:23:52 49° SE 09:28:18 10° NE daylight
02 Aug - 11:03:24 10° WNW 11:05:18 12° NW 11:07:13 10° NNW daylight
02 Aug - 21:27:35 10° NW 21:32:08 84° NE 21:36:38 10° SE visible
03 Aug - 07:58:00 10° SE 07:58:39 10° SE 07:59:19 10° ESE daylight
03 Aug - 09:35:37 10° SW 09:40:04 58° NW 09:44:34 10° NNE daylight
03 Aug - 20:03:56 10° N 20:06:56 17° NE 20:09:56 10° E visible
03 Aug - 21:44:13 10° WNW 21:48:20 34° SW 21:52:25 10° SSE night (unlit)
04 Aug - 08:11:07 10° S 08:14:56 27° SE 08:18:47 10° ENE daylight
04 Aug - 09:52:49 10° W 09:56:18 22° NW 09:59:49 10° N daylight
04 Aug - 20:18:50 10° NNW 20:23:12 45° NE 20:27:31 10° ESE visible
04 Aug - 22:02:24 10° W 22:04:35 13° SW 22:06:45 10° SSW night (unlit)
05 Aug - 08:26:38 10° SW 08:31:08 76° SE 08:35:40 10° NE daylight
05 Aug - 20:34:52 10° NW 20:39:24 64° SW 20:43:53 10° SSE visible
06 Aug - 07:03:19 10° SSE 07:05:58 15° SE 07:08:38 10° E daylight
06 Aug - 08:43:09 10° WSW 08:47:20 38° NW 08:51:34 10° NNE daylight
06 Aug - 19:10:27 10° N 19:14:14 25° NE 19:17:59 10° ESE visible
06 Aug - 20:51:57 10° WNW 20:55:36 23° SW 20:59:14 10° S visible
07 Aug - 07:18:00 10° SSW 07:22:12 40° SE 07:26:27 10° ENE daylight
07 Aug - 09:01:04 10° W 09:03:36 15° NW 09:06:08 10° NNW daylight
07 Aug - 19:25:53 10° NNW 19:30:28 69° NE 19:34:59 10° SE visible
08 Aug - 07:33:57 10° SW 07:38:24 71° NW 07:42:54 10° NNE daylight
08 Aug - 18:02:41 10° NNE 18:05:15 15° NE 18:07:46 10° E daylight
08 Aug - 19:42:18 10° WNW 19:46:39 42° SW 19:50:57 10° SSE visible
09 Aug - 06:09:47 10° S 06:13:15 22° SE 06:16:46 10° ENE daylight
09 Aug - 07:50:54 10° WSW 07:54:37 25° NW 07:58:22 10° N daylight
09 Aug - 18:17:14 10° NNW 18:21:30 37° NE 18:25:44 10° ESE daylight
09 Aug - 20:00:01 10° W 20:02:53 16° SW 20:05:44 10° S visible
10 Aug - 06:25:04 10° SSW 06:29:28 61° SE 06:33:54 10° NE daylight
10 Aug - 18:33:05 10° NW 18:37:42 79° SW 18:42:17 10° SE visible
